Weather History for PAIN - December, 2011

Change the Weather History Date:

Tuesday, December 6, 2011

  Actual Average Record
Temperature  
Mean Temperature 12 °F -  
Max Temperature 17 °F 11 °F 41 °F (2002)
Min Temperature 8 °F -3 °F -45 °F (1975)
Degree Days  
Heating Degree Days 52    
Moisture  
Dew Point 12 °F    
Average Humidity 91    
Maximum Humidity 100    
Minimum Humidity 79    
Precipitation  
Precipitation 0.00 in - - ()
Sea Level Pressure  
Sea Level Pressure 30.29 in    
Wind  
Wind Speed 2 mph (North)    
Max Wind Speed 9 mph    
Max Gust Speed -    
Visibility 7 miles    
Events      
Averages and records for this station are not official NWS values.
T = Trace of Precipitation, MM = Missing Value Source: NWS Daily Summary

Daily Weather History Graph

Daily Weather History Graph

Search for Another Location

Airport or City:

Trip Planner

Search our weather history database for the weather conditions in past years. The results will help you decide how hot, cold, wet, or windy it might be!

Date:

Astronomy

Dec. 06, 2011 Rise Set
Actual Time 10:20 AM AKST 3:12 PM AKST
Civil Twilight 9:09 AM AKST 4:23 PM AKST
Nautical Twilight 8:03 AM AKST 5:29 PM AKST
Astronomical Twilight 7:05 AM AKST 6:27 PM AKST
Moon 1:34 PM AKST (12/6) 5:53 AM AKST (12/6)
Length of Visible Light 7h 13m
Length of Day
4h 51m
Waxing Gibbous, 87% of the Moon is Illuminated
Dec 6
Waxing Gibbous
Dec 10
Full
Dec 17
Last Quarter
Dec 24
New
Dec 31
First Quarter

Hourly Weather History & Observations

Time (AKST) Temp. Windchill Dew Point Humidity Pressure Visibility Wind Dir Wind Speed Gust Speed Precip Events Conditions
12:16 AM 17.6 °F - 15.8 °F 93% 30.17 in 2.5 mi Calm Calm - N/A   Overcast
12:36 AM 17.6 °F - 15.8 °F 93% 30.17 in 1.2 mi Calm Calm - N/A   Overcast
12:56 AM 17.6 °F - 15.8 °F 93% 30.17 in 1.5 mi Calm Calm - N/A   Overcast
1:16 AM 17.6 °F 12.3 °F 15.8 °F 93% 30.18 in 2.5 mi WSW 3.5 mph - N/A   Overcast
1:36 AM 17.6 °F - 15.8 °F 93% 30.19 in 2.5 mi Calm Calm - N/A   Overcast
1:56 AM 17.6 °F 12.3 °F 15.8 °F 93% 30.19 in 3.0 mi SE 3.5 mph - N/A   Overcast
2:16 AM 17.6 °F 12.3 °F 15.8 °F 93% 30.20 in 3.0 mi SSW 3.5 mph - N/A   Overcast
2:36 AM 17.6 °F 7.3 °F 15.8 °F 93% 30.21 in 1.0 mi NNE 8.1 mph - N/A   Overcast
2:56 AM 15.8 °F 6.1 °F 14.0 °F 93% 30.22 in 0.5 mi North 6.9 mph - N/A   Overcast
3:16 AM 15.8 °F 7.2 °F 14.0 °F 93% 30.22 in 0.5 mi North 5.8 mph - N/A   Overcast
3:36 AM 15.8 °F 7.2 °F 14.0 °F 93% 30.23 in 1.0 mi NNE 5.8 mph - N/A   Overcast
3:56 AM 15.8 °F 8.6 °F 12.2 °F 86% 30.24 in 1.0 mi North 4.6 mph - N/A   Overcast
4:16 AM 15.8 °F 6.1 °F 12.2 °F 86% 30.25 in 1.2 mi NNE 6.9 mph - N/A   Overcast
4:36 AM 15.8 °F 4.2 °F 12.2 °F 86% 30.25 in 1.8 mi North 9.2 mph - N/A   Overcast
4:56 AM 14.0 °F 5.1 °F 12.2 °F 93% 30.26 in 2.5 mi North 5.8 mph - N/A   Overcast
5:16 AM 14.0 °F 8.2 °F 12.2 °F 93% 30.26 in 3.0 mi North 3.5 mph - N/A   Overcast
5:36 AM 14.0 °F 5.1 °F 12.2 °F 93% 30.27 in 5.0 mi North 5.8 mph - N/A   Overcast
5:56 AM 12.2 °F 4.3 °F 12.2 °F 100% 30.27 in 5.0 mi North 4.6 mph - N/A   Overcast
6:16 AM 12.2 °F 4.3 °F 12.2 °F 100% 30.28 in 5.0 mi North 4.6 mph - N/A   Overcast
6:36 AM 12.2 °F - 10.4 °F 92% 30.27 in 9.0 mi Calm Calm - N/A   Mostly Cloudy
6:56 AM 12.2 °F 6.1 °F 10.4 °F 92% 30.28 in 10.0 mi NE 3.5 mph - N/A   Overcast
7:16 AM 12.2 °F 6.1 °F 10.4 °F 92% 30.28 in 3.0 mi North 3.5 mph - N/A   Overcast
7:36 AM 12.2 °F - 10.4 °F 92% 30.28 in 9.0 mi Calm Calm - N/A   Mostly Cloudy
7:56 AM 12.2 °F - 10.4 °F 92% 30.29 in 10.0 mi Calm Calm - N/A   Overcast
8:16 AM 12.2 °F - 10.4 °F 92% 30.29 in 10.0 mi Calm Calm - N/A   Overcast
8:36 AM 12.2 °F - 10.4 °F 92% 30.29 in 10.0 mi Calm Calm - N/A   Overcast
8:56 AM 12.2 °F - 10.4 °F 92% 30.30 in 10.0 mi Calm Calm - N/A   Overcast
9:16 AM 12.2 °F - 10.4 °F 92% 30.30 in 10.0 mi Calm Calm - N/A   Overcast
9:36 AM 12.2 °F - 10.4 °F 92% 30.31 in 10.0 mi Calm Calm - N/A   Overcast
9:56 AM 12.2 °F - 10.4 °F 92% 30.32 in 10.0 mi Calm Calm - N/A   Overcast
10:16 AM 12.2 °F - 10.4 °F 92% 30.32 in 10.0 mi Calm Calm - N/A   Overcast
10:36 AM 12.2 °F - 10.4 °F 92% 30.33 in 10.0 mi Calm Calm - N/A   Overcast
10:56 AM 12.2 °F - 12.2 °F 100% 30.32 in 10.0 mi Calm Calm - N/A   Overcast
11:16 AM 12.2 °F - 12.2 °F 100% 30.33 in 10.0 mi Calm Calm - N/A   Overcast
11:36 AM 15.8 °F - 12.2 °F 86% 30.34 in 10.0 mi Calm Calm - N/A   Overcast
11:56 AM 15.8 °F 10.2 °F 12.2 °F 86% 30.34 in 10.0 mi WSW 3.5 mph - N/A   Overcast
12:16 PM 15.8 °F - 14.0 °F 93% 30.34 in 10.0 mi Calm Calm - N/A   Overcast
12:36 PM 17.6 °F - 12.2 °F 79% 30.34 in 10.0 mi Calm Calm - N/A   Overcast
12:56 PM 17.6 °F - 14.0 °F 86% 30.34 in 10.0 mi Calm Calm - N/A   Overcast
1:16 PM 17.6 °F - 14.0 °F 86% 30.34 in 10.0 mi Calm Calm - N/A   Overcast
1:36 PM 17.6 °F - 14.0 °F 86% 30.34 in 10.0 mi Calm Calm - N/A   Overcast
1:56 PM 17.6 °F - 14.0 °F 86% 30.35 in 10.0 mi Calm Calm - N/A   Overcast
2:16 PM 17.6 °F - 14.0 °F 86% 30.34 in 10.0 mi Calm Calm - N/A   Overcast
2:36 PM 17.6 °F - 14.0 °F 86% 30.34 in 10.0 mi Calm Calm - N/A   Overcast
2:56 PM 17.6 °F - 14.0 °F 86% 30.34 in 10.0 mi Calm Calm - N/A   Overcast
3:16 PM 17.6 °F - 12.2 °F 79% 30.34 in 10.0 mi Calm Calm - N/A   Overcast
3:36 PM 15.8 °F - 12.2 °F 86% 30.34 in 10.0 mi Calm Calm - N/A   Mostly Cloudy
3:56 PM 14.0 °F - 10.4 °F 86% 30.34 in 10.0 mi Calm Calm - N/A   Partly Cloudy
4:16 PM 12.2 °F - 10.4 °F 92% 30.34 in 10.0 mi Calm Calm - N/A   Clear
4:36 PM 10.4 °F - 8.6 °F 92% 30.34 in 10.0 mi Calm Calm - N/A   Clear
4:56 PM 10.4 °F - 8.6 °F 92% 30.35 in 10.0 mi Calm Calm - N/A   Clear
5:16 PM 8.6 °F - 8.6 °F 100% 30.35 in 10.0 mi Calm Calm - N/A   Clear
5:36 PM 8.6 °F - 8.6 °F 100% 30.35 in 10.0 mi Calm Calm - N/A   Mostly Cloudy
5:56 PM 10.4 °F - 6.8 °F 85% 30.35 in 10.0 mi Calm Calm - N/A   Mostly Cloudy
6:16 PM 8.6 °F 2.0 °F 6.8 °F 92% 30.35 in 10.0 mi WSW 3.5 mph - N/A   Clear
6:36 PM 8.6 °F - 6.8 °F 92% 30.34 in 10.0 mi Calm Calm - N/A   Clear
6:56 PM 8.6 °F 2.0 °F 6.8 °F 92% 30.34 in 10.0 mi SW 3.5 mph - N/A   Clear
7:16 PM 8.6 °F 2.0 °F 6.8 °F 92% 30.34 in 10.0 mi SW 3.5 mph - N/A   Clear
7:36 PM 6.8 °F -3.5 °F 6.8 °F 100% 30.34 in 10.0 mi SW 5.8 mph - N/A   Clear
7:56 PM 8.6 °F 2.0 °F 6.8 °F 92% 30.33 in 10.0 mi WSW 3.5 mph - N/A   Clear
8:16 PM 8.6 °F 2.0 °F 6.8 °F 92% 30.33 in 10.0 mi SW 3.5 mph - N/A   Clear
8:36 PM 8.6 °F 0.1 °F 8.6 °F 100% 30.34 in 10.0 mi South 4.6 mph - N/A   Clear
8:56 PM 8.6 °F 0.1 °F 6.8 °F 92% 30.33 in 10.0 mi WSW 4.6 mph - N/A   Clear
9:16 PM 8.6 °F 2.0 °F 6.8 °F 92% 30.33 in 10.0 mi WSW 3.5 mph - N/A   Clear
9:36 PM 8.6 °F 0.1 °F 8.6 °F 100% 30.33 in 10.0 mi SW 4.6 mph - N/A   Clear
9:56 PM 10.4 °F 4.0 °F 8.6 °F 92% 30.32 in 10.0 mi West 3.5 mph - N/A   Clear
10:16 PM 12.2 °F 4.3 °F 12.2 °F 100% 30.31 in 10.0 mi WSW 4.6 mph - N/A   Partly Cloudy
10:36 PM 15.8 °F 8.6 °F 12.2 °F 86% 30.30 in 10.0 mi SW 4.6 mph - N/A   Scattered Clouds
10:56 PM 15.8 °F 10.2 °F 12.2 °F 86% 30.29 in 10.0 mi SSW 3.5 mph - N/A   Scattered Clouds
11:16 PM 15.8 °F 8.6 °F 12.2 °F 86% 30.29 in 10.0 mi SW 4.6 mph - N/A   Scattered Clouds
11:36 PM 15.8 °F 7.2 °F 12.2 °F 86% 30.29 in 10.0 mi South 5.8 mph - N/A   Partly Cloudy
11:56 PM 17.6 °F 9.3 °F 14.0 °F 86% 30.28 in 10.0 mi South 5.8 mph - N/A   Scattered Clouds